CST,Max TemperatureF,Mean TemperatureF,Min TemperatureF,Max Dew PointF,MeanDew PointF,Min DewpointF,Max Humidity, Mean Humidity, Min Humidity, Max Sea Level PressureIn, Mean Sea Level PressureIn, Min Sea Level PressureIn, Max VisibilityMiles, Mean VisibilityMiles, Min VisibilityMiles, Max Wind SpeedMPH, Mean Wind SpeedMPH, Max Gust SpeedMPH,PrecipitationIn, CloudCover, Events, WindDirDegrees
2013-12-1,59,41,23,29,25,20,85,64,33,30.17,30.04,29.83,10,10,10,8,4,,0.00,0,,269
2013-12-2,70,53,36,32,28,26,70,47,22,29.81,29.66,29.55,10,10,10,17,7,24,0.00,1,,267
2013-12-3,60,44,28,33,28,23,89,68,32,29.73,29.59,29.49,10,9,7,21,8,28,0.00,3,,14
2013-12-4,28,22,15,25,13,2,96,73,40,30.25,29.90,29.69,10,8,2,26,21,36,T,7,Rain-Snow,340
2013-12-5,16,11,6,3,-3,-5,70,54,41,30.49,30.40,30.30,10,10,10,14,10,22,0.00,4,,355
2013-12-6,16,7,-2,-5,-8,-10,76,50,36,30.74,30.61,30.49,10,10,10,13,9,,0.00,5,,29
2013-12-7,13,5,-3,9,0,-9,92,74,46,30.74,30.50,30.15,10,8,2,15,7,105,T,6,Snow,115
2013-12-8,18,8,-2,12,9,-5,95,86,73,30.31,30.07,29.93,10,4,1,13,8,,T,7,Snow,50
2013-12-9,20,8,-4,6,0,-9,76,65,50,30.47,30.37,30.30,10,10,10,16,10,20,0.00,2,,263
2013-12-10,42,27,12,18,11,4,78,59,31,30.33,30.20,30.00,10,10,10,16,9,20,0.00,0,,256
2013-12-11,30,19,8,18,11,4,88,68,49,30.71,30.56,30.28,10,10,10,17,9,22,0.00,1,,346
2013-12-12,51,33,14,20,15,10,84,61,26,30.50,30.30,30.04,10,10,10,13,7,,0.00,0,,231
2013-12-13,42,27,11,24,19,8,88,75,51,30.14,29.96,29.84,10,9,5,16,5,25,0.00,2,,17
2013-12-14,49,33,17,28,19,13,85,69,38,30.32,30.24,30.10,10,9,6,17,12,24,0.00,2,,312
2013-12-15,62,45,27,23,19,17,69,47,20,30.20,30.11,30.03,10,10,10,23,11,32,0.00,1,,277
2013-12-16,63,46,28,21,19,17,64,46,20,30.18,30.10,30.04,10,10,10,16,7,25,0.00,0,,282
2013-12-17,53,38,22,26,21,19,88,55,30,30.41,30.28,30.11,10,10,10,15,8,,0.00,0,,256
2013-12-18,66,47,28,21,20,18,66,43,17,30.07,29.84,29.71,10,10,10,16,9,,0.00,0,,240
2013-12-19,46,31,16,29,21,8,75,64,49,29.97,29.77,29.64,10,10,8,25,12,34,T,3,,21
2013-12-20,25,20,15,10,8,5,77,63,51,30.07,29.99,29.86,10,9,6,22,12,31,T,5,Snow,352
2013-12-21,30,21,12,14,12,8,84,66,47,29.96,29.83,29.74,10,10,10,15,4,,0.00,2,,29
2013-12-22,35,22,9,16,12,8,88,68,44,30.40,30.21,29.98,10,10,10,15,9,21,0.00,2,,2
2013-12-23,22,17,11,15,10,5,84,74,57,30.66,30.49,30.34,10,7,1,17,11,20,T,6,Snow,84
2013-12-24,46,32,17,32,22,14,88,74,42,30.41,30.22,30.04,10,8,4,18,11,25,0.00,6,,221
2013-12-25,47,34,20,27,19,14,91,65,34,30.43,30.39,30.33,10,10,10,22,8,28,0.00,0,,293
2013-12-26,58,40,22,20,17,15,71,52,22,30.34,30.27,30.20,10,10,10,18,8,28,0.00,0,,283
2013-12-27,65,43,20,21,17,14,72,44,14,30.35,30.25,30.09,10,10,10,16,9,24,0.00,0,,247
2013-12-28,63,42,20,26,16,9,68,46,15,30.23,29.98,29.75,10,10,10,30,12,40,0.00,1,,279
2013-12-29,24,17,10,9,2,-1,62,53,39,30.51,30.35,30.20,10,10,10,26,18,34,0.00,2,,349
2013-12-30,53,34,15,24,14,3,74,51,28,30.31,30.21,30.12,10,10,10,21,8,28,0.00,1,,274
2013-12-31,62,38,13,24,17,11,88,56,24,30.30,30.09,29.97,10,10,10,16,6,,0.00,0,,257